Regional Weather Roundup
Issued by NWS

Home | Current Version | Previous Version | Text Only | Print | Product List | Glossary On
Versions: 1 2 3 4 5 6 7 8 9 10 11 12 13 14 15 16 17 18 19 20 21 22 23 24 25 26 27 28 29 30 31 32 33 34 35 36 37 38 39 40 41 42 43 44 45 46 47 48
000
ASUS43 KDMX 191207
RWRIA

WEATHER ROUNDUP FOR IOWA
NATIONAL WEATHER SERVICE DES MOINES IA
700 AM CDT FRI SEP 19 2014

NOTE: "FAIR" INDICATES FEW OR NO CLOUDS BELOW 12,000 FEET WITH NO
SIGNIFICANT WEATHER AND/OR OBSTRUCTIONS TO VISIBILITY.

* - THESE STATIONS ARE NOT NWS STATIONS...THUS NOT UNDER NWS
QUALITY CONTROL.  THEY ALSO DO NOT REPORT WEATHER SUCH
AS PRECIPITATION OR FOG.

IAZ001>003-012>014-020>022-031>034-043>046-191300-
   NORTHWEST IOWA

CITY           SKY/WX    TMP DP  RH WIND       PRES   REMARKS
CARROLL *      CLOUDY    57  55  94 SE6       29.96S FOG
CHEROKEE *     CLOUDY    62  61  97 S14G22    29.90F
DENISON *      CLOUDY    63  61  94 S12G20    29.92F
LE MARS *        N/A     63  61  94 S15G22    29.87F FOG
ORANGE CITY *  CLOUDY    63  61  94 S16G23    29.87F FOG
SHELDON *      CLOUDY    61  61 100 S13       29.87F FOG
SIOUX CITY     CLOUDY    63  61  93 S10       29.87F
6HR MIN TEMP:  60; 6HR MAX TEMP:  64;

SPENCER        CLOUDY    61  58  90 S9        29.91F
6HR MIN TEMP:  58; 6HR MAX TEMP:  61;

STORM LAKE *   CLOUDY    61  61 100 S10G17    29.93S FOG
$$

IAZ055>058-069>071-079>083-090>094-191300-
   SOUTHWEST IOWA

CITY           SKY/WX    TMP DP  RH WIND       PRES   REMARKS
ATLANTIC *     CLOUDY    61  59  94 S9        29.97S FOG
AUDUBON *      PTCLDY    59  54  82 S10       29.98S HAZE
CLARINDA *     CLOUDY    61  61 100 S7G14     30.00F FOG
COUNCIL BLFS *   N/A     61  61 100 S13       29.95R FOG
CRESTON *      CLOUDY    57  57 100 S9        30.02S FOG
HARLAN  *      CLOUDY    61  61 100 S10       29.99S
LAMONI         CLOUDY    56  55  97 S8        30.03R
6HR MIN TEMP:  55; 6HR MAX TEMP:  59;

SHENANDOAH *   CLOUDY    63  61  94 S8        29.98S FOG
$$

IAZ047>049-059>061-072>074-084-191300-
   CENTRAL IOWA

CITY           SKY/WX    TMP DP  RH WIND       PRES   REMARKS
AMES             N/A     53  52  96 S7        30.02R
6HR MIN TEMP:  51; 6HR MAX TEMP:  53;

ANKENY *       CLEAR     55  54  94 S6        30.02S
CHARITON *     CLEAR     54  52  94 S8        30.03F
DES MOINES     PTCLDY    56  53  90 S7        30.02R
6HR MIN TEMP:  56; 6HR MAX TEMP:  60;

GRINNELL*      CLEAR     54  50  87 SE6       30.05S
KNOXVILLE *    CLEAR     54  52  94 SE6       30.03R
MARSHALLTOWN   CLEAR     51  49  92 SE9       30.03R
6HR MIN TEMP:  51; 6HR MAX TEMP:  56;

PELLA *        CLEAR     54  52  95 SE6       30.05S
PERRY *          N/A     55  55  97 SE8       30.00S FOG
$$

IAZ004>006-015-016-023>025-035-036-191300-
   NORTH CENTRAL IOWA

CITY           SKY/WX    TMP DP  RH WIND       PRES   REMARKS
ALGONA *       PTCLDY    55  55 100 S14       29.95F
CLARION *        N/A     57  55  94 S13       29.99S
ESTHERVILLE    CLOUDY    58  56  93 S16       29.91F
6HR MIN TEMP:  56; 6HR MAX TEMP:  58;

FORT DODGE *   PTCLDY    57  54  88 S6        29.99S
MASON CITY     CLEAR     51  50  96 SE9       30.02R
6HR MIN TEMP:  51; 6HR MAX TEMP:  55;

FOREST CITY *  CLEAR     54  54 100 SE10      29.98F
IOWA FALLS *     N/A     52  50  93 SE8       30.03S
$$

IAZ007>011-017>019-026>030-037>042-050>054-066-191300-
   NORTHEAST IOWA

CITY           SKY/WX    TMP DP  RH WIND       PRES   REMARKS
CEDAR RAPIDS   CLEAR     51  49  92 SE6       30.07S
6HR MIN TEMP:  49; 6HR MAX TEMP:  56;

CHARLES CITY * CLEAR     52  48  87 S8G14     30.04R
CLINTON *      PTCLDY    52  48  87 SE5       30.14R
DECORAH *      CLEAR     52  50  93 S8        30.04S FOG
DUBUQUE        FOG       51  51 100 S7        30.10S VSB 3/4
6HR MIN TEMP:  51; 6HR MAX TEMP:  54;

MONTICELLO *   FOG       52  52 100 SE6       30.08F VSB 1
OELWEIN *      CLEAR     52  50  93 SE9       30.06S FOG
WATERLOO       CLEAR     53  48  83 SE10      30.04R
6HR MIN TEMP:  52; 6HR MAX TEMP:  58;

$$

IAZ064-065-067-068-078-191300-
   EAST CENTRAL IOWA

CITY           SKY/WX    TMP DP  RH WIND       PRES   REMARKS
DAVENPORT      CLEAR     50  47  89 SE7       30.11R FOG
6HR MIN TEMP:  50; 6HR MAX TEMP:  56;

IOWA CITY      CLEAR     50  49  96 VRB3      30.09F
6HR MIN TEMP:  49; 6HR MAX TEMP:  54;

MT. PLEASANT * CLEAR     49  47  93 SE3       30.09R
MUSCATINE *    CLEAR     48  46  93 CALM      30.10S FOG
QUAD CITIES    CLEAR     50  48  93 NE5       30.11R FOG
6HR MIN TEMP:  47; 6HR MAX TEMP:  54;

$$

IAZ062-063-075>077-085>089-095>099-191300-
   SOUTHEAST IOWA

CITY           SKY/WX    TMP DP  RH WIND       PRES   REMARKS
BURLINGTON     CLEAR     50  48  93 CALM      30.09R
6HR MIN TEMP:  50; 6HR MAX TEMP:  58;

FAIRFIELD *    CLEAR     50  46  87 SE6       30.08R
FORT MADISON * CLEAR     54  50  87 CALM      30.09S
KEOKUK *       CLEAR     50  48  93 E5        30.07S
OSKALOOSA *      N/A     50  49  95 SE7       30.06S
CENTERVILLE *  CLEAR     54  54 100 SE6       30.06F
OTTUMWA        PTCLDY    52  49  89 SE5       30.05F
6HR MIN TEMP:  50; 6HR MAX TEMP:  55;

WASHINGTON *   CLEAR     48  48 100 SE7       30.08S
$$

ABBREVIATIONS USED IN REMARKS
   TC - TEMPERATURES IN CELSIUS
  WCI - WIND CHILL INDEX
   HX - HEAT INDEX
  VSB - VISIBILITY
$$




USA.gov is the U.S. government's official web portal to all federal, state and local government web resources and services.